Tracking 35274 objects as of 10-Sep-2026
HD Live streaming from Space Station
objects crossing your sky now

COSMOS 880 DEB


COSMOS 880 DEB is no longer on orbit


NORAD ID: 11186
Int'l Code: 1976-120M
Launch date: December 9, 1976
Source: Commonwealth of Independent States (former USSR) (CIS)
Launch site: PLESETSK MISSILE AND SPACE COMPLEX (PKMTR)
Decay date: 1980-11-13

Note: This is SATELLITE DEBRIS
Your satellite tracking list
Your tracking list is empty




NASA's NSSDC Master Catalog

Two Line Element Set (TLE):
1 11186U 76120  M 80307.65987169  .05308040 +67483-5 +39347-3 0  9994
2 11186 065.7947 344.7977 0011549 303.3920 056.6180 16.16917791214098
Source of the keplerian elements: AFSPC